DW1253 Weather Reports


time (UTC)temp
C
wind
direction
speed
KPH
gust
KPH
rain 1hr
cm
rain 24hr
cm
rain mn
cm
humidity
%
barometer
mb
20260508234416 9 222 0.0 3.2 0.00 0.23 0.23 53 1008.5
20260508233854 10 222 0.0 3.2 0.00 0.23 0.23 56 1008.5
20260508233344 10 222 0.0 6.4 0.00 0.23 0.23 54 1008.5
20260508232843 10 182 3.2 6.4 0.00 0.23 0.23 56 1008.5
20260508232346 10 223 1.6 6.4 0.00 0.23 0.23 55 1008.4
20260508231853 10 229 3.2 6.4 0.00 0.23 0.23 58 1008.5
20260508231340 10 185 1.6 6.4 0.00 0.23 0.23 53 1008.4
20260508230834 10 178 1.6 8.0 0.00 0.23 0.23 52 1008.4
20260508230331 10 248 4.8 11.3 0.00 0.23 0.23 48 1008.4
20260508225844 10 211 4.8 11.3 0.00 0.23 0.23 49 1008.4
20260508225340 10 329 4.8 6.4 0.00 0.23 0.23 46 1008.4
20260508224840 10 172 1.6 6.4 0.00 0.23 0.23 49 1008.4
20260508224340 11 240 3.2 6.4 0.00 0.23 0.23 48 1008.5
20260508223836 11 194 3.2 11.3 0.00 0.23 0.23 47 1008.6
20260508223352 11 232 4.8 14.5 0.00 0.23 0.23 44 1008.6
20260508222843 11 207 3.2 17.7 0.00 0.23 0.23 47 1008.6
20260508222335 11 234 6.4 17.7 0.00 0.23 0.23 43 1008.5
20260508221837 11 271 3.2 16.1 0.00 0.23 0.23 44 1008.5
20260508221339 11 270 3.2 12.9 0.00 0.23 0.23 45 1008.4
20260508220857 11 223 6.4 12.9 0.00 0.23 0.23 41 1008.4
20260508220347 11 236 6.4 14.5 0.00 0.23 0.23 42 1008.4
20260508215834 11 238 6.4 16.1 0.00 0.23 0.23 42 1008.4
20260508215407 12 216 9.7 16.1 0.00 0.23 0.23 40 1008.5
20260508214842 12 13 1.6 14.5 0.00 0.23 0.23 45 1008.4
20260508214338 11 215 3.2 14.5 0.00 0.23 0.23 42 1008.4
20260508213844 12 289 4.8 12.9 0.00 0.23 0.23 40 1008.4
20260508213350 12 219 6.4 12.9 0.00 0.23 0.23 44 1008.4
20260508212906 12 209 3.2 12.9 0.00 0.23 0.23 44 1008.5
20260508212349 12 299 1.6 14.5 0.00 0.23 0.23 39 1008.4
20260508211911 12 253 6.4 14.5 0.00 0.23 0.23 39 1008.4
20260508211345 12 242 3.2 8.0 0.00 0.23 0.23 41 1008.4
20260508210833 12 63 3.2 8.0 0.00 0.23 0.23 36 1008.4
20260508210336 12 136 1.6 11.3 0.00 0.23 0.23 39 1008.5
20260508205848 12 194 3.2 11.3 0.00 0.23 0.23 39 1008.5
20260508205348 12 203 3.2 12.9 0.00 0.23 0.23 38 1008.6
20260508204840 12 237 3.2 12.9 0.00 0.23 0.23 41 1008.6
20260508204340 12 56 3.2 6.4 0.00 0.23 0.23 40 1008.6
20260508203835 12 22 1.6 9.7 0.00 0.23 0.23 39 1008.6
20260508203358 12 288 4.8 9.7 0.00 0.23 0.23 39 1008.6
20260508202853 12 178 3.2 17.7 0.00 0.23 0.23 42 1008.7
20260508202344 12 311 8.0 17.7 0.00 0.23 0.23 36 1008.6
20260508201844 12 227 4.8 19.3 0.00 0.23 0.23 43 1008.6
20260508201338 12 240 9.7 19.3 0.00 0.23 0.23 42 1008.7
20260508200358 12 183 4.8 17.7 0.00 0.23 0.23 41 1008.9
20260508195847 12 209 4.8 16.1 0.00 0.23 0.23 38 1008.8
20260508195345 12 189 3.2 11.3 0.00 0.23 0.23 42 1008.9
20260508194839 12 209 6.4 11.3 0.00 0.23 0.23 42 1008.9
20260508194401 12 277 3.2 14.5 0.00 0.23 0.23 43 1008.9
20260508193845 12 211 4.8 14.5 0.00 0.23 0.23 41 1009.0
20260508193344 12 180 4.8 9.7 0.00 0.23 0.23 48 1009.0
20260508192911 12 84 4.8 11.3 0.00 0.23 0.23 43 1009.1
20260508192346 12 250 4.8 11.3 0.00 0.23 0.23 43 1009.2
20260508191844 11 52 3.2 12.9 0.00 0.23 0.23 42 1009.2
20260508191335 12 312 6.4 12.9 0.00 0.23 0.23 40 1009.3
20260508190837 12 233 6.4 12.9 0.00 0.23 0.23 42 1009.3
20260508190334 12 206 3.2 11.3 0.00 0.23 0.23 47 1009.3
20260508185848 12 177 3.2 8.0 0.00 0.23 0.23 46 1009.4
20260508185350 12 216 3.2 8.0 0.00 0.23 0.23 53 1009.4
20260508184847 11 211 3.2 14.5 0.00 0.23 0.23 49 1009.5
20260508184350 12 249 4.8 8.0 0.00 0.23 0.23 52 1009.4
20260508183847 11 67 3.2 12.9 0.00 0.23 0.23 55 1009.7
20260508183346 11 239 4.8 12.9 0.00 0.23 0.23 52 1009.7
20260508182852 11 241 3.2 16.1 0.00 0.23 0.23 53 1009.6
20260508182350 11 275 6.4 16.1 0.00 0.23 0.23 54 1009.6
20260508181847 11 245 4.8 11.3 0.00 0.23 0.23 54 1009.7
20260508181346 11 92 4.8 14.5 0.00 0.23 0.23 53 1009.5
20260508180835 11 157 6.4 14.5 0.00 0.23 0.23 51 1009.5
20260508180353 11 312 3.2 9.7 0.00 0.23 0.23 55 1009.6
20260508175840 11 233 4.8 9.7 0.00 0.23 0.23 52 1009.7
20260508175358 10 184 3.2 20.9 0.00 0.23 0.23 54 1009.7
20260508174850 11 293 4.8 20.9 0.00 0.23 0.23 54 1009.7
20260508174344 11 338 4.8 14.5 0.00 0.23 0.23 60 1009.7
20260508173850 10 24 6.4 14.5 0.00 0.23 0.23 57 1009.7
20260508173340 10 330 4.8 9.7 0.00 0.23 0.23 56 1009.8
20260508172841 10 219 4.8 11.3 0.00 0.23 0.23 55 1009.9
20260508172356 10 221 4.8 11.3 0.00 0.23 0.23 58 1009.9
20260508171856 10 49 1.6 6.4 0.00 0.23 0.23 60 1010.0
20260508171352 10 321 3.2 8.0 0.00 0.23 0.23 60 1010.0
20260508170844 10 202 4.8 17.7 0.00 0.23 0.23 62 1010.1
20260508170407 9 153 4.8 17.7 0.00 0.23 0.23 56 1010.1
20260508165852 10 156 8.0 14.5 0.00 0.23 0.23 60 1010.2
20260508165353 9 231 4.8 9.7 0.00 0.23 0.23 60 1010.2
20260508164851 9 348 3.2 11.3 0.00 0.23 0.23 60 1010.2
20260508164350 10 107 4.8 9.7 0.00 0.23 0.23 59 1010.2
20260508163848 10 219 4.8 12.9 0.00 0.23 0.23 57 1010.3
20260508163345 10 234 4.8 11.3 0.00 0.23 0.23 69 1010.3
20260508162841 9 178 4.8 17.7 0.00 0.23 0.23 66 1010.3
20260508162345 9 46 3.2 17.7 0.00 0.23 0.23 67 1010.3
20260508161837 9 332 6.4 12.9 0.00 0.23 0.23 71 1010.5
20260508161344 8 271 4.8 12.9 0.00 0.23 0.23 68 1010.5
20260508160846 8 45 6.4 11.3 0.00 0.23 0.23 68 1010.6
20260508160349 8 207 3.2 8.0 0.00 0.23 0.23 70 1010.6
20260508155836 8 218 3.2 8.0 0.00 0.23 0.23 75 1010.7
20260508155357 7 206 3.2 6.4 0.00 0.23 0.23 75 1010.8
20260508154850 7 288 1.6 6.4 0.00 0.23 0.23 74 1010.7
20260508154342 7 184 3.2 9.7 0.00 0.23 0.23 77 1010.6
20260508153844 8 75 3.2 9.7 0.00 0.23 0.23 74 1010.6
20260508153338 8 206 6.4 8.0 0.00 0.23 0.23 78 1010.7
20260508152854 7 344 3.2 6.4 0.00 0.23 0.23 80 1010.7
20260508152349 7 22 1.6 11.3 0.00 0.23 0.23 81 1010.7
20260508151852 7 269 3.2 11.3 0.00 0.23 0.23 80 1010.7
20260508151352 7 355 3.2 6.4 0.00 0.23 0.23 82 1010.6
20260508150911 7 14 3.2 9.7 0.00 0.23 0.23 82 1010.6
20260508150348 7 222 4.8 9.7 0.00 0.23 0.23 85 1010.6
20260508145913 7 182 4.8 8.0 0.00 0.23 0.23 86 1010.6
20260508145355 6 222 3.2 9.7 0.00 0.23 0.23 88 1010.7
20260508144835 6 171 1.6 11.3 0.00 0.23 0.23 88 1010.6
20260508144334 6 181 1.6 8.0 0.00 0.23 0.23 90 1010.6
20260508143906 6 155 1.6 9.7 0.00 0.23 0.23 91 1010.6
20260508143342 6 155 4.8 9.7 0.00 0.23 0.23 93 1010.6
20260508142856 5 71 3.2 9.7 0.00 0.23 0.23 91 1010.6
20260508142351 5 121 3.2 6.4 0.00 0.23 0.23 94 1010.6
20260508141842 5 323 0.0 3.2 0.00 0.23 0.23 93 1010.7
20260508141343 5 126 0.0 4.8 0.00 0.23 0.23 93 1010.7
20260508140840 5 126 3.2 4.8 0.00 0.23 0.23 93 1010.7
20260508140336 4 200 0.0 3.2 0.00 0.23 0.23 92 1010.7
20260508135851 4 200 0.0 3.2 0.00 0.23 0.23 93 1010.6
20260508135334 4 200 0.0 1.6 0.00 0.23 0.23 93 1010.6
20260508134841 4 200 0.0 1.6 0.00 0.23 0.23 93 1010.5
20260508134335 4 200 0.0 1.6 0.00 0.23 0.23 93 1010.5
20260508133840 4 200 0.0 4.8 0.00 0.23 0.23 93 1010.3
20260508133407 3 200 1.6 6.4 0.00 0.23 0.23 93 1010.4
20260508132853 3 223 3.2 6.4 0.00 0.23 0.23 93 1010.4
20260508132403 4 345 0.0 0.0 0.00 0.23 0.23 94 1010.6
20260508131858 4 337 0.0 3.2 0.00 0.23 0.23 94 1010.6
20260508131413 3 337 1.6 3.2 0.00 0.23 0.23 94 1010.6
20260508130918 3 61 1.6 3.2 0.00 0.23 0.23 94 1010.3
20260508130331 3 49 0.0 6.4 0.00 0.23 0.23 93 1010.4
20260508125842 3 49 1.6 6.4 0.03 0.23 0.23 94 1010.5
20260508125339 3 65 0.0 4.8 0.03 0.23 0.23 93 1010.5
20260508124840 3 313 1.6 4.8 0.05 0.23 0.23 93 1010.4
20260508124340 3 212 1.6 8.0 0.08 0.23 0.23 93 1010.2
20260508123844 3 11 3.2 8.0 0.13 0.23 0.23 93 1010.4
20260508123357 3 282 0.0 6.4 0.13 0.23 0.23 93 1010.5
20260508122854 3 306 1.6 6.4 0.13 0.23 0.23 93 1010.5
20260508122357 3 290 1.6 6.4 0.13 0.23 0.23 93 1010.3
20260508121847 3 24 3.2 4.8 0.13 0.23 0.23 94 1010.3
20260508121340 3 284 0.0 0.0 0.13 0.23 0.23 94 1010.4
20260508120844 3 284 0.0 3.2 0.13 0.23 0.23 94 1010.3
20260508120336 3 284 0.0 6.4 0.13 0.23 0.23 94 1010.3
20260508115844 3 282 1.6 6.4 0.10 0.20 0.20 93 1010.2
20260508115348 3 277 1.6 6.4 0.10 0.20 0.20 93 1010.2
20260508114342 3 165 0.0 0.0 0.05 0.15 0.15 94 1010.4
20260508113840 3 165 0.0 1.6 0.00 0.10 0.10 94 1010.2
20260508113336 3 165 0.0 1.6 0.00 0.10 0.10 94 1010.2
20260508112859 3 165 0.0 3.2 0.03 0.10 0.10 94 1009.5
20260508112348 3 165 0.0 3.2 0.03 0.10 0.10 94 1009.5
20260508111847 3 165 0.0 0.0 0.03 0.10 0.10 94 1009.4
20260508111407 3 165 0.0 0.0 0.08 0.10 0.10 93 1009.7
20260508110844 3 165 0.0 3.2 0.08 0.10 0.10 93 1009.7
20260508110340 3 165 0.0 3.2 0.08 0.10 0.10 93 1009.6
20260508105917 3 71 0.0 3.2 0.08 0.10 0.10 93 1009.6
20260508105351 3 71 0.0 0.0 0.08 0.10 0.10 93 1009.6
20260508104840 3 71 0.0 0.0 0.08 0.10 0.10 93 1009.6
20260508104342 3 71 0.0 0.0 0.08 0.10 0.10 92 1009.7
20260508103841 3 71 0.0 0.0 0.08 0.10 0.10 92 1009.5
20260508103342 3 71 0.0 0.0 0.08 0.10 0.10 93 1009.4
20260508102846 3 71 0.0 0.0 0.05 0.08 0.08 93 1009.4
20260508102335 3 71 0.0 0.0 0.05 0.08 0.08 93 1009.2
20260508101840 3 71 0.0 0.0 0.03 0.05 0.05 93 1009.2
20260508101359 3 71 0.0 0.0 0.00 0.03 0.03 93 1009.2
20260508100834 3 71 0.0 0.0 0.00 0.03 0.03 93 1009.2
20260508100350 3 71 0.0 0.0 0.00 0.03 0.03 93 1009.2
20260508095836 3 71 0.0 0.0 0.00 0.03 0.03 93 1008.8
20260508095347 3 71 0.0 0.0 0.00 0.03 0.03 93 1008.6
20260508094858 3 71 0.0 0.0 0.00 0.03 0.03 92 1008.7
20260508094351 3 71 0.0 0.0 0.00 0.03 0.03 92 1008.7
20260508093847 3 71 0.0 0.0 0.00 0.03 0.03 92 1008.9
20260508093333 3 71 0.0 0.0 0.00 0.03 0.03 92 1009.0
20260508092847 3 71 0.0 0.0 0.00 0.03 0.03 92 1008.9
20260508092408 3 71 0.0 0.0 0.00 0.03 0.03 92 1009.2
20260508091909 3 71 0.0 0.0 0.00 0.03 0.03 92 1009.5
20260508091341 3 71 0.0 0.0 0.00 0.03 0.03 92 1009.3
20260508090836 3 71 0.0 0.0 0.00 0.03 0.03 92 1009.1
20260508090348 3 71 0.0 0.0 0.00 0.03 0.03 92 1009.2
20260508085841 3 71 0.0 0.0 0.00 0.03 0.03 92 1009.2
20260508085343 3 71 0.0 0.0 0.00 0.03 0.03 93 1009.2
20260508084843 3 71 0.0 0.0 0.00 0.03 0.03 93 1009.5
20260508084342 3 71 0.0 0.0 0.03 0.03 0.03 93 1009.6
20260508083838 3 71 0.0 0.0 0.03 0.03 0.03 93 1009.7
20260508083341 3 71 0.0 0.0 0.03 0.03 0.03 93 1009.5
20260508082834 3 71 0.0 0.0 0.03 0.03 0.03 93 1009.5
20260508082354 3 71 0.0 0.0 0.03 0.03 0.03 93 1009.5
20260508081835 3 71 0.0 0.0 0.03 0.03 0.03 92 1009.7
20260508081354 3 71 0.0 0.0 0.03 0.03 0.03 92 1009.7
20260508080852 3 71 0.0 0.0 0.03 0.03 0.03 92 1009.5
20260508080334 3 71 0.0 0.0 0.03 0.03 0.03 92 1009.4
20260508075843 3 71 0.0 3.2 0.03 0.03 0.03 93 1009.5
20260508075402 3 71 0.0 3.2 0.03 0.03 0.03 93 1009.8
20260508074835 3 71 0.0 3.2 0.00 0.00 0.00 93 1009.9
20260508074338 3 71 0.0 4.8 0.00 0.00 0.00 93 1009.9
20260508073836 3 71 1.6 6.4 0.00 0.00 0.00 93 1009.8
20260508073400 3 249 1.6 8.0 0.00 0.00 0.00 93 1010.1
20260508072835 3 226 3.2 8.0 0.00 0.00 0.00 93 1009.8
20260508072352 3 231 0.0 4.8 0.00 0.00 0.00 94 1009.8
20260508071911 3 225 1.6 3.2 0.00 0.00 0.00 94 1009.7
20260508071410 3 225 0.0 3.2 0.00 0.00 0.00 94 1009.7
20260508070845 3 225 0.0 3.2 0.00 0.00 0.00 94 1009.5
20260508070344 3 225 0.0 3.2 0.00 0.00 0.00 94 1009.6
20260508065847 3 225 1.6 3.2 0.00 0.00 0.00 94 1009.5
20260508065415 3 225 1.6 4.8 0.00 0.00 0.00 94 1009.7
20260508064852 3 225 1.6 4.8 0.00 0.00 0.00 94 1009.7
20260508064349 3 225 0.0 3.2 0.00 0.00 0.00 94 1009.7
20260508063839 3 225 0.0 3.2 0.00 0.00 0.00 94 1009.8
20260508063345 3 227 1.6 3.2 0.00 0.00 0.00 94 1009.8
20260508062846 3 227 0.0 3.2 0.00 0.00 0.00 94 1009.8
20260508062347 3 227 0.0 4.8 0.00 0.00 0.00 94 1009.8
20260508061843 3 227 1.6 4.8 0.00 0.00 0.00 94 1009.9
20260508061340 3 209 1.6 4.8 0.00 0.00 0.00 94 1009.9
20260508060855 3 209 3.2 4.8 0.00 0.00 0.00 94 1009.9
20260508060348 3 209 0.0 3.2 0.00 0.00 0.00 94 1009.9
20260508055834 3 209 0.0 4.8 0.00 0.00 0.00 94 1009.9
20260508055354 3 208 1.6 4.8 0.00 0.00 0.00 94 1010.0
20260508054846 3 250 3.2 4.8 0.00 0.00 0.00 94 1010.0
20260508054416 3 225 3.2 4.8 0.00 0.00 0.00 94 1010.1
20260508053909 3 225 1.6 4.8 0.00 0.00 0.00 94 1010.1
20260508053348 3 225 1.6 3.2 0.00 0.00 0.00 94 1010.1
20260508052852 3 225 0.0 1.6 0.00 0.00 0.00 94 1010.1
20260508052404 3 225 0.0 6.4 0.00 0.00 0.00 94 1010.0
20260508051845 3 224 3.2 8.0 0.00 0.00 0.00 94 1010.3
20260508051346 3 254 3.2 8.0 0.00 0.00 0.00 94 1010.3
20260508050848 3 236 4.8 8.0 0.00 0.00 0.00 94 1010.3
20260508045842 3 231 1.6 8.0 0.00 0.00 0.00 94 1010.2
20260508045337 3 234 3.2 6.4 0.00 0.00 0.00 94 1010.3
20260508044838 3 225 1.6 8.0 0.00 0.00 0.00 94 1010.3
20260508044357 2 261 3.2 4.8 0.00 0.00 0.00 94 1010.4
20260508043918 2 242 3.2 8.0 0.00 0.00 0.00 93 1010.2
20260508043355 2 221 3.2 8.0 0.00 0.00 0.00 93 1010.3
20260508042914 2 219 0.0 0.0 0.00 0.00 0.00 93 1010.2
20260508042340 3 219 0.0 0.0 0.00 0.00 0.00 93 1010.2
20260508041854 2 219 0.0 0.0 0.00 0.00 0.00 93 1010.2
20260508041404 3 219 0.0 0.0 0.00 0.00 0.00 93 1010.2
20260508040843 3 219 0.0 0.0 0.00 0.00 0.00 93 1010.1
20260508040337 3 219 0.0 0.0 0.00 0.00 0.00 93 1010.1
20260508035906 3 219 0.0 0.0 0.00 0.00 0.00 92 1010.0
20260508035347 3 219 0.0 0.0 0.00 0.00 0.00 92 1010.0
20260508034901 3 219 0.0 0.0 0.00 0.00 0.00 92 1010.1
20260508034336 3 219 0.0 0.0 0.00 0.00 0.00 92 1010.0
20260508033838 3 219 0.0 0.0 0.00 0.00 0.00 92 1010.1
20260508033342 3 219 0.0 0.0 0.00 0.00 0.00 92 1010.1
20260508032842 3 219 0.0 0.0 0.00 0.00 0.00 92 1010.1
20260508032337 3 219 0.0 0.0 0.00 0.00 0.00 91 1010.1
20260508031911 3 219 0.0 0.0 0.00 0.00 0.00 91 1010.0
20260508031357 3 219 0.0 0.0 0.00 0.00 0.00 91 1010.0
20260508030844 3 219 0.0 0.0 0.00 0.00 0.00 90 1010.0
20260508030336 3 219 0.0 0.0 0.00 0.00 0.00 90 1010.0
20260508025903 3 219 0.0 0.0 0.00 0.00 0.00 90 1010.1
20260508025336 3 219 0.0 0.0 0.00 0.00 0.00 89 1010.1
20260508024834 4 219 0.0 0.0 0.00 0.00 0.00 89 1010.0
20260508024350 4 219 0.0 0.0 0.00 0.00 0.00 89 1010.0
20260508023846 4 219 0.0 4.8 0.00 0.00 0.00 88 1010.0
20260508023338 5 219 0.0 4.8 0.00 0.00 0.00 88 1010.0
20260508022842 5 300 0.0 8.0 0.00 0.00 0.00 88 1010.0
20260508022341 5 299 3.2 9.7 0.00 0.00 0.00 88 1010.0
20260508021837 5 165 0.0 6.4 0.00 0.00 0.00 87 1010.1
20260508021334 5 165 3.2 6.4 0.00 0.00 0.00 87 1010.1
20260508020840 5 274 3.2 6.4 0.00 0.00 0.00 86 1010.0
20260508020333 5 137 0.0 4.8 0.00 0.00 0.00 86 1010.0
20260508015844 5 159 0.0 3.2 0.00 0.00 0.00 85 1009.9
20260508015342 5 57 0.0 4.8 0.00 0.00 0.00 84 1009.9
20260508014836 5 57 1.6 8.0 0.00 0.00 0.00 84 1009.8
20260508014353 5 252 3.2 8.0 0.00 0.00 0.00 84 1009.9
20260508013906 5 36 1.6 4.8 0.00 0.00 0.00 84 1009.9
20260508013346 5 219 1.6 3.2 0.00 0.00 0.00 83 1009.8
20260508012834 5 219 1.6 4.8 0.00 0.00 0.00 82 1009.8
20260508012337 5 219 3.2 4.8 0.00 0.00 0.00 81 1009.8
20260508011838 5 219 3.2 4.8 0.00 0.00 0.00 81 1009.6